Pontiac, MI

6:24 AM EDT on April 26, 2017 (GMT -0400)
Oakland County International

Weather History for KPTK - January, 2014

Change the Weather History Date:

Friday, January 24, 2014

  Actual Average Record
Temperature  
Mean Temperature 6 °F -  
Max Temperature 15 °F 27 °F 42 °F (2002)
Min Temperature -2 °F 13 °F -2 °F (2004)
Degree Days  
Heating Degree Days 58    
Moisture  
Dew Point 0 °F    
Average Humidity 72    
Maximum Humidity 85    
Minimum Humidity 55    
Precipitation  
Precipitation 0.00 in - - ()
Snow  
Snow 0.00 in - - ()
Snow Depth 6.00 in    
Sea Level Pressure  
Sea Level Pressure 29.95 in    
Wind  
Wind Speed 10 mph (SSW)    
Max Wind Speed 23 mph    
Max Gust Speed 38 mph    
Visibility 7 miles    
Events Snow    
Averages and records for this station are not official NWS values.
T = Trace of Precipitation, MM = Missing Value Source: NWS Daily Summary

Daily Weather History Graph

Daily Weather History Graph

Search for Another Location

Airport or City:

Trip Planner

Search our weather history database for the weather conditions in past years. The results will help you decide how hot, cold, wet, or windy it might be!

Date:

Astronomy

Jan. 24, 2014 Rise Set
Actual Time 7:55 AM EST 5:36 PM EST
Civil Twilight 7:24 AM EST 6:07 PM EST
Nautical Twilight 6:50 AM EST 6:41 PM EST
Astronomical Twilight 6:17 AM EST 7:14 PM EST
Moon 1:19 AM EST (1/24) 11:56 AM EST (1/24)
Length of Visible Light 10h 42m
Length of Day
9h 41m
Last Quarter, 45% of the Moon is Illuminated
Jan 24
Last Quarter
Jan 30
New
Feb 6
First Quarter
Feb 14
Full
Feb 22
Last Quarter

Hourly Weather History & Observations

Time (EST) Temp. Windchill Dew Point Humidity Pressure Visibility Wind Dir Wind Speed Gust Speed Precip Events Conditions
12:53 AM -2.0 °F - -6.0 °F 83% 30.44 in 10.0 mi Calm Calm - N/A   Mostly Cloudy
1:53 AM -2.9 °F -11.2 °F -7.1 °F 82% 30.42 in 10.0 mi SSW 3.5 mph - N/A   Partly Cloudy
2:53 AM 1.0 °F -6.7 °F -2.9 °F 83% 30.40 in 7.0 mi SSW 3.5 mph - 0.00 in   Mostly Cloudy
3:53 AM 1.9 °F -10.6 °F -2.0 °F 83% 30.39 in 10.0 mi SW 6.9 mph - N/A   Overcast
4:18 AM 3.2 °F -9.1 °F -2.2 °F 78% 30.32 in 10.0 mi WSW 6.9 mph - N/A   Mostly Cloudy
4:32 AM 3.2 °F -9.1 °F -0.4 °F 85% 30.31 in 10.0 mi SW 6.9 mph - N/A   Scattered Clouds
4:53 AM 3.0 °F -9.3 °F -0.9 °F 84% 30.37 in 10.0 mi SW 6.9 mph - N/A   Clear
5:53 AM 3.0 °F -10.5 °F -0.9 °F 84% 30.35 in 10.0 mi SW 8.1 mph - N/A   Clear
6:53 AM 3.0 °F -11.5 °F -2.0 °F 80% 30.32 in 10.0 mi SW 9.2 mph - N/A   Ice Crystals
7:53 AM 1.9 °F -13.8 °F -2.9 °F 80% 30.30 in 10.0 mi SW 10.4 mph 19.6 mph N/A   Mostly Cloudy
8:53 AM 1.0 °F -14.9 °F -6.0 °F 72% 30.27 in 10.0 mi SSW 10.4 mph - N/A   Mostly Cloudy
9:53 AM 1.0 °F -17.3 °F -7.1 °F 69% 30.24 in 10.0 mi SSW 13.8 mph 20.7 mph N/A   Overcast
10:53 AM 1.9 °F -16.2 °F -9.0 °F 60% 30.20 in 10.0 mi SSW 13.8 mph 28.8 mph N/A   Overcast
11:53 AM 1.9 °F -16.2 °F -9.0 °F 60% 30.16 in 10.0 mi SW 13.8 mph 25.3 mph N/A   Overcast
12:53 PM 3.0 °F -16.1 °F -7.1 °F 63% 30.04 in 10.0 mi SSW 16.1 mph 28.8 mph N/A   Overcast
1:53 PM 5.0 °F -15.2 °F -7.1 °F 58% 29.95 in 10.0 mi SSW 19.6 mph 29.9 mph N/A   Overcast
2:53 PM 7.0 °F -12.1 °F -6.0 °F 55% 29.90 in 10.0 mi SSW 18.4 mph 32.2 mph N/A   Mostly Cloudy
3:53 PM 8.1 °F -9.6 °F -4.0 °F 58% 29.86 in 10.0 mi SSW 16.1 mph 31.1 mph N/A   Overcast
4:53 PM 10.0 °F -6.5 °F -2.9 °F 56% 29.82 in 10.0 mi SSW 15.0 mph 31.1 mph N/A   Overcast
5:53 PM 10.0 °F -9.5 °F -2.0 °F 58% 29.80 in 10.0 mi SSW 21.9 mph 32.2 mph N/A   Overcast
6:53 PM 10.9 °F -8.8 °F -0.0 °F 61% 29.77 in 3.0 mi SSW 23.0 mph 38.0 mph 0.00 in Snow Light Snow
7:16 PM 10.4 °F -6.0 °F 1.4 °F 67% 29.69 in 2.5 mi SSW 15.0 mph 24.2 mph 0.00 in Snow Light Snow
7:29 PM 10.4 °F -6.6 °F 1.4 °F 67% 29.68 in 5.0 mi SSW 16.1 mph 29.9 mph 0.00 in Snow Light Snow
7:42 PM 10.4 °F -6.6 °F 3.2 °F 73% 29.68 in 1.8 mi SSW 16.1 mph 26.5 mph 0.00 in Snow Light Snow
7:53 PM 10.9 °F -2.6 °F 3.9 °F 73% 29.73 in 1.8 mi SSW 10.4 mph 24.2 mph 0.00 in Snow Light Snow
8:07 PM 12.2 °F -3.7 °F 3.2 °F 67% 29.66 in 2.5 mi SSW 15.0 mph 25.3 mph 0.00 in Snow Light Snow
8:25 PM 12.2 °F -1.0 °F 3.2 °F 67% 29.66 in 4.0 mi SSW 10.4 mph 26.5 mph 0.00 in Snow Light Snow
8:53 PM 12.9 °F -3.9 °F 5.0 °F 71% 29.68 in 8.0 mi SSW 17.3 mph 26.5 mph 0.00 in   Overcast
9:48 PM 14.0 °F -3.0 °F 6.8 °F 73% 29.57 in 6.0 mi SSW 18.4 mph 28.8 mph 0.00 in Snow Light Snow
9:53 PM 14.0 °F -3.0 °F 6.1 °F 71% 29.63 in 6.0 mi SSW 18.4 mph 28.8 mph 0.00 in Snow Light Snow
10:24 PM 14.0 °F -2.0 °F 8.6 °F 79% 29.55 in 1.8 mi SSW 16.1 mph 27.6 mph 0.00 in Snow Light Snow
10:53 PM 14.0 °F -1.4 °F 9.0 °F 80% 29.58 in 1.8 mi SW 15.0 mph 23.0 mph 0.00 in Snow Light Snow
11:26 PM 15.8 °F 0.9 °F 8.6 °F 73% 29.49 in 2.5 mi SW 15.0 mph 25.3 mph 0.00 in Snow Light Snow
11:44 PM 15.8 °F 1.4 °F 8.6 °F 73% 29.47 in 7.0 mi SSW 13.8 mph 27.6 mph 0.00 in Snow Light Snow
11:53 PM 15.1 °F -0.1 °F 10.0 °F 80% 29.53 in 7.0 mi SSW 15.0 mph 20.7 mph 0.00 in Snow Light Snow